Location: Obersdorf
(47.4079°N, 10.2781°E)
Time: 02:10:11
(UTC+01:00)

XW-2C - Pass Details

Date: 09 December 2021
Orbit: 503 x 523 km, 97.5° (Epoch: 16 January)

Event Time Altitude Azimuth Distance (km) Brightness Sun altitude
Rises 05:02:31 0° 35° (NE) 2,669 ? -28.0°
Reaches altitude 10° 05:06:41 10° 80° (E) 1,769 ? -27.3°
Maximum altitude 05:07:13 10° 88° (E) 1,753 ? -27.2°
Drops below altitude 10° 05:07:44 10° 96° (E) 1,766 ? -27.1°
Sets 05:11:51 0° 140° (SE) 2,642 ? -26.4°
